CZ-3B DEB, 39335

Orbit data source: Space-Track

CZ-3B DEB, 39335 is space debris in HEO originally from a launch on Sat, 04 Sep 2010 UTC launched from the Xichang Space Center, China (XSC). Debris objects in space refer to the collection of defunct objects orbiting the Earth. Examples of debris include non-operational satellites, rocket bodies, and fragments generated from explosions, collisions, or faulty payload assembly.

Loading next visibility...
Identifier
39335, 2010-042G
Orbit
HEO
Country
Flag of CNCN / PRC
Related business
Manufacturer
CALT
Mission
Spacecraft
Bus & Motor
Unknown
Mass
Unknown
Launch date (UTC)
2010-09-04 (16 years ago)
Launch vehicle
Unknown
Launch site
Xichang Space Center, China (XSC)
Object type
Payload
Rocket body
Debris
Shape & HBR
Unknown shape, 0.2 m
Radar Cross Section
Medium (>0.1 m² and <1 m²)

Expand to show TLE details & history
Last TLE update: 1 day ago

TLE from 1 day ago
0 CZ-3B DEB
1 39335U 10042G   26119.34145449  .00001077  00000-0  19458-1 0  9996
2 39335  27.9053  48.2917 7361849 303.7912 323.4729  1.97588702 83081
Epoch: 2026-04-29T08:11Z
TLE epoch observation values (Epoch: 2026-04-29T08:11:41.667Z)
Latitude
2.13552°
Longitude
-116.05263°
Altitude
16,331.345 km
Speed
4.499 km/s
True Right ascension
14h 56m 41s
True Declination
2° 07' 53"
Sunlit
Object was in daylight at epoch
Visualization orbit readout
Latitude
Unknown
Longitude
Unknown
Altitude
Unknown
Speed
Unknown
Apparent Right ascension
Unknown
Apparent Declination
Unknown
Sunlit
N/A
Visualization observer readout
Local Sidereal Time
00:54:01
Azimuth
Unknown
Elevation
Unknown
Doppler factor
Unknown
Orbital elements
Apogee altitude
40,203.447 km
Perigee altitude
699.983 km
Semi-major axis
26,829.852 km
Eccentricity
0.73618
Inclination
27.9053°
RAAN
48.2917°
Arg. of periapsis
303.7912°
True anomaly
231.61291°
Mean anomaly
323.4729°
Eccentric anomaly
282.25357°
Mean motion
0.49387 °/min
Orbital period
728.93 mins
BSTAR
0.019458
Loading maneuver chart data...
Computing Atmospheric mass density...
Loading historical data...
Loading historical data...
Loading historical data...
Loading historical data...
Loading historical data...
Loading historical data...
Loading historical data...

Documentation

Showing up to 5 results
|